Location: Newark
(14.1000°N, 87.2167°W)
Time: 01:28:54
(UTC+00:00)

N. Korean satellite - Visible Passes

Search period start: 18 September 2021 00:00
Search period end: 28 September 2021 00:00
Orbit: 448 x 499 km, 97.3° (Epoch: 17 September)

Date Brightness Start Highest point End Pass type
(mag) Time Alt. Az. Time Alt. Az. Time Alt. Az.
18 Sep 9.7 10:06:31 10° ENE 10:08:39 15° E 10:10:49 10° SE visible
19 Sep 7.0 11:10:43 10° N 11:14:02 39° WNW 11:17:24 10° SSW visible
20 Sep 7.0 10:42:50 10° NNE 10:46:22 65° E 10:49:56 10° S visible
21 Sep 9.2 10:15:51 10° NE 10:18:40 22° E 10:21:31 10° SSE visible
23 Sep 6.5 10:52:45 10° N 10:56:20 82° W 10:59:57 10° SSW visible
24 Sep 8.5 10:25:24 10° NE 10:28:37 32° E 10:31:53 10° SSE visible
25 Sep 10.0 09:59:29 10° ENE 10:00:53 12° E 10:02:16 10° ESE visible
26 Sep 6.7 11:02:42 10° N 11:06:14 54° WNW 11:09:47 10° SSW visible
27 Sep 7.7 10:35:02 10° NNE 10:38:31 47° E 10:42:01 10° S visible
